TIME,DELAY(SENSOR),PRES,OXYGEN,RAWTEMP,T(OPTODE),TCPHASE,FLUOR,BETA(BETA700),BETA(BETA412),BETA(BETA440),CDOM,C(CSC),ED(ED411.90),ED(ED443.80),ED(ED489.40),ED(ED554.70),LU(LU412.20),LU(LU443.80),LU(LU489.40),LU(LU555.00),COMP,TILTX,TILTY,CHECK
1343254365,5803,853.8900146484375000,172.2926025390625000,391.4605102539062500,10.8628501892089840,37.9226188659668000,52,100,99,79,80,14170,2146955785,2147514441,2147284352,2147500626,2147088969,2146932214,2147692498,2147120621,1056,-2,8,58302
1343257961,5803,982.1099853515625000,184.6553039550781200,473.1828918457031000,8.3591518402099610,38.4211692810058600,52,103,100,79,81,14159,2146955291,2147515995,2147294875,2147516416,2147090934,2146919259,2147715456,2147118290,1610,-1,8,179
1343261561,5803,1005.9600219726562000,198.0308074951172000,494.9556884765625000,7.6859030723571780,37.9332885742187500,52,103,100,79,80,14153,2146957558,2147517174,2147295433,2147516425,2147090742,2146919049,2147715291,2147115876,3386,-2,8,17386
1343265161,5807,1010.6300048828125000,197.9371032714843800,495.1413879394531000,7.6801500320434570,37.9426994323730500,53,104,100,80,80,14153,2146959899,2147517110,2147296512,2147520411,2147090139,2146921764,2147716763,2147118701,221,-1,8,42548
1343268761,5802,1015.7500000000000000,198.8332061767578000,496.5252075195312500,7.6372561454772950,37.9106407165527340,53,105,100,80,80,14149,2146958171,2147515309,2147296731,2147521600,2147090706,2146918546,2147714112,2147117796,1616,-1,8,12759
1343272361,5805,1013.3699951171875000,201.4244995117187500,498.9324951171875000,7.5626101493835450,37.7926483154296900,52,105,99,78,81,14149,2146956809,2147516416,2147294052,2147519177,2147091245,2146915017,2147713481,2147121737,1118,-2,8,1121
1343275961,5809,1008.5000000000000000,203.9781951904297000,503.2164001464844000,7.4296741485595700,37.7118110656738300,52,105,100,79,82,14149,2146957449,2147518464,2147292370,2147516598,2147089545,2146915401,2147720027,2147118537,942,-2,8,48024
1343279561,5805,1013.8400268554688000,202.2026977539062500,502.8388977050781000,7.4413919448852540,37.8131103515625000,53,105,99,80,81,14148,2146955328,2147516736,2147292598,2147518326,2147092187,2146919204,2147718692,2147120877,3493,-1,7,59277
1343283161,5803,1014.7999877929688000,202.4458007812500000,503.1650085449219000,7.4312682151794430,37.8040695190429700,52,103,101,79,82,14149,2146958573,2147515867,2147294884,2147515638,2147092251,2146914413,2147717705,2147118802,3515,-2,8,28934
1343286761,5804,1016.5499877929688000,202.2205047607422000,503.8818054199219000,7.4090142250061035,37.8306083679199200,51,104,99,79,82,14146,2146956964,2147517284,2147294390,2147520228,2147089389,2146916233,2147718061,2147119259,3436,-2,8,5710
1343290361,5804,1017.0100097656250000,202.2962951660156200,504.1451110839844000,7.4008388519287110,37.8307495117187500,53,104,100,79,80,14148,2146956534,2147515638,2147297654,2147519323,2147094326,2146925997,2147718473,2147118262,3449,-2,8,43684
1343293961,5805,1021.3099975585938000,204.0222015380859400,504.4462890625000000,7.3914837837219240,37.7311096191406250,52,104,101,79,82,14147,2146955053,2147515986,2147297234,2147518354,2147091200,2146918482,2147718774,2147117942,3529,-2,8,6635
1343297561,5804,1026.9699707031250000,203.5196990966797000,502.4468078613281000,7.4535641670227050,37.7260208129882800,52,104,99,79,81,14139,2146958089,2147516013,2147295058,2147520228,2147087149,2146922944,2147715501,2147117513,2492,-2,8,22112
1343301161,5805,1025.2099609375000000,203.2648010253906200,502.1582946777344000,7.4625201225280760,37.7370109558105500,52,106,100,79,82,14136,2146952859,2147515702,2147294628,2147518509,2147091145,2146918226,2147717284,2147116964,2604,-1,8,7687
1343304761,5803,1028.5100097656250000,202.8563995361328000,501.2507019042969000,7.4906859397888180,37.7458190917968750,53,104,100,81,81,14139,2146955355,2147517120,2147295405,2147516489,2147091821,2146925568,2147720256,2147117796,2472,-1,8,49308
1343308361,5806,1024.8900146484375000,202.9335937500000000,501.6095886230469000,7.4795498847961430,37.7467308044433600,53,105,100,80,81,14136,2146955958,2147518025,2147299629,2147519122,2147092297,2146917348,2147713654,2147115657,2875,-2,8,30029
1343311961,5803,1023.5900268554688000,202.9629974365234400,503.2968139648437500,7.4271759986877440,37.7748298645019500,53,104,100,79,82,14135,2146952256,2147514477,2147296192,2147516781,2147091437,2146920914,2147717833,2147117924,3029,-2,8,49005
1343315561,5804,1019.2500000000000000,203.7140960693359400,504.1250915527344000,7.4014592170715330,37.7436981201171900,52,105,101,80,81,14124,2146958555,2147518747,2147295798,2147519232,2147090569,2146921554,2147719689,2147120000,3447,-2,8,36845
1343319161,5806,1024.1199951171875000,204.5500030517578000,505.2564086914062500,7.3663258552551270,37.7137413024902340,53,105,101,80,81,14123,2146959296,2147517604,2147294866,2147521234,2147089234,2146917979,2147716068,2147116854,2828,-2,8,57420
1343322761,5805,1027.7800292968750000,204.7572937011718800,505.0841979980469000,7.3716750144958500,37.6973991394043000,53,105,99,80,81,14122,2146955931,2147518409,2147293650,2147517659,2147092854,2146922157,2147717129,2147119661,2962,-2,8,39661
1343326361,5804,1025.1800537109375000,204.5484008789062500,505.1991882324219000,7.3681039810180660,37.7125015258789060,53,103,100,79,81,14122,2146954386,2147516635,2147295881,2147517092,2147091913,2146919561,2147718244,2147117577,2873,-2,8,13960
1343329961,5806,1022.6799926757812000,204.7135925292968800,505.6359863281250000,7.3545351028442380,37.7097892761230500,53,106,99,80,82,14117,2146951497,2147516708,2147296493,2147519579,2147092736,2146915428,2147720603,2147117668,3447,-2,8,50434
1343333561,5808,1024.0600585937500000,205.2232055664062500,505.7078857421875000,7.3523020744323730,37.6803398132324200,52,104,100,79,81,14120,2146958482,2147515328,2147297307,2147519579,2147091611,2146922267,2147723273,2147118820,3427,-2,8,19688
1343337161,5807,1017.3900146484375000,205.2189025878906200,508.6365051269531000,7.2613029479980470,37.7320785522460940,52,105,101,91,82,14108,2146956370,2147517211,2147294080,2147517065,2147092105,2146917942,2147721380,2147121133,474,-2,8,55504
1343340761,5805,1019.9600219726562000,207.4470062255859400,509.0429992675781000,7.2486681938171390,37.6060981750488300,52,103,100,80,81,14109,2146954395,2147516681,2147295798,2147523904,2147088210,2146916416,2147719652,2147121270,2776,-1,8,16682
1343344361,5805,1027.7900390625000000,205.7812957763672000,506.5851135253906000,7.3250517845153810,37.6619682312011700,52,103,100,78,82,14109,2146955428,2147517467,2147296064,2147521161,2147089609,2146920365,2147717988,2147119945,2027,-2,8,25882
1343347961,5805,1021.7500000000000000,204.7409057617187500,506.4927062988281000,7.3279209136962890,37.7233390808105500,52,106,100,80,82,14109,2146958848,2147515574,2147297398,2147519789,2147091382,2146923081,2147718381,2147117376,599,-1,8,10814
1343351561,5805,1025.4000244140625000,205.8236999511718800,507.0823059082031000,7.3096032142639160,37.6682815551757800,53,105,102,80,81,14108,2146957613,2147514660,2147296201,2147518784,2147087497,2146925686,2147720329,2147118573,2140,-2,8,36123
1343355161,5804,1023.7999877929688000,205.9678955078125000,508.6209106445312500,7.2617878913879395,37.6867218017578100,52,106,101,79,82,14107,2146956662,2147515702,2147296795,2147521956,2147090825,2146922066,2147723702,2147119424,3410,-2,8,16831
1343358761,5805,1025.1199951171875000,206.2216033935547000,507.3870849609375000,7.3001317977905270,37.6505393981933600,52,105,101,78,82,14098,2146954898,2147515136,2147297371,2147521618,2147089645,2146925906,2147723382,2147120402,2471,-2,8,28188
1343362361,5803,1028.5799560546875000,205.2174072265625000,507.3872985839844000,7.3001260757446290,37.7101402282714840,53,105,100,79,82,14097,2146957110,2147518217,2147295680,2147522313,2147089435,2146918811,2147725933,2147113536,2335,-2,8,56211
1343365961,5805,1028.5999755859375000,205.8302001953125000,507.0629882812500000,7.3102049827575680,37.6675415039062500,53,106,99,78,81,14096,2146957641,2147518473,2147294217,2147521398,2147090285,2146921161,2147722377,2147120612,3089,-2,8,16145
1343369561,5806,1034.3900146484375000,203.3901062011718800,505.5816955566406000,7.3562211990356445,37.7892189025878900,53,103,101,80,81,14096,2146956580,2147519442,2147295597,2147521307,2147090377,2146926208,2147720210,2147118528,181,-1,8,18281
1343373161,5806,1033.6700439453125000,202.8601989746093800,504.5285034179687500,7.3889322280883790,37.8028602600097660,52,103,100,79,81,14098,2146957238,2147519561,2147295734,2147523273,2147088749,2146926052,2147718701,2147116498,580,-2,8,4493
1343376761,5806,1034.0200195312500000,202.6087951660156200,505.1570129394531000,7.3694138526916500,37.8286094665527340,53,104,100,81,82,14096,2146957842,2147518692,2147296512,2147519021,2147091072,2146926857,2147719314,2147114258,364,-2,8,26262
1343380361,5806,1023.7500000000000000,203.0569000244140600,502.8422851562500000,7.4412889480590820,37.7612495422363300,52,103,100,81,82,14092,2146958601,2147516342,2147298038,2147519396,2147091465,2146917293,2147718592,2147115794,3336,-2,8,33056
1343383961,5806,1019.2600097656250000,202.9783935546875000,502.3557128906250000,7.4563927650451660,37.7574882507324200,54,105,101,80,82,14096,2146959268,2147516013,2147295652,2147520100,2147090724,2146921490,2147717696,2147115712,3334,-1,8,56697
1343387561,5805,1021.6599731445312000,203.1533050537109400,502.5372924804687500,7.4507541656494140,37.7507095336914060,51,104,99,78,81,14096,2146957732,2147515940,2147292416,2147518893,2147091648,2146922185,2147717568,2147118354,3127,-1,8,7987
1343391161,5807,1020.5000000000000000,202.2422027587890600,502.3215942382812500,7.4574489593505860,37.8022384643554700,52,106,100,79,81,14096,2146953828,2147518281,2147296539,2147520173,2147089892,2146922322,2147718080,2147120384,3071,-1,8,30060
1343394761,5806,1020.2999877929688000,202.7454986572265600,502.6470031738281000,7.4473490715026855,37.7765083312988300,53,105,102,79,82,14093,2146956608,2147518454,2147292662,2147522715,2147091062,2146925622,2147719890,2147117339,3394,-2,8,12947
1343397055,5806,1020.1900024414062000,203.1952056884765600,502.5067138671875000,7.4517049789428710,37.7466583251953100,52,104,101,78,81,14112,2146957705,2147515995,2147297636,2147519049,2147091547,2146918692,2147717513,2147115913,3170,-2,8,46590
